Regional Weather Roundup
Issued by NWS

Home | Current Version | Previous Version | Text Only | Print | Product List | Glossary On
Versions: 1 2 3 4 5 6 7 8 9 10 11 12 13 14 15 16 17 18 19 20 21 22 23 24 25 26 27 28 29 30 31 32 33 34 35 36 37 38 39 40 41 42 43 44 45 46 47 48 49 50
000
ASUS44 KFWD 250203
RWRTX
NORTH TEXAS HOURLY WEATHER ROUNDUP
NATIONAL WEATHER SERVICE FORT WORTH TX
900 PM CDT WED AUG 24 2016

NOTE: "FAIR" INDICATES FEW OR NO CLOUDS BELOW 12,000 FEET WITH NO
SIGNIFICANT WEATHER AND/OR OBSTRUCTIONS TO VISIBILITY.

TXZ118-119-250300-
DALLAS/FORT WORTH METROPLEX

CITY           SKY/WX    TMP DP  RH WIND       PRES   REMARKS
DFW AIRPORT    PTCLDY    87  68  52 S13       30.02R HX  90
DALLAS LOVE    PTCLDY    88  70  55 S15       30.03R HX  93
FTW MEACHAM    CLEAR     87  69  54 SE16      30.02R HX  91
DAL-EXECUTIVE  CLOUDY    85  72  65 S8        30.04R HX  91
FTW-ALLIANCE   PTCLDY    85  68  56 S12       30.02R
FTW-SPINKS     CLEAR     82  70  67 SE8       30.05R
ARLINGTON      CLEAR     85  70  60 SE10      30.03R
GRAND PRAIRIE  CLEAR     85  69  58 SE8       30.05R
ADDISON        CLEAR     86  70  58 SE15G21   30.03R HX  90
MESQUITE       PTCLDY    81  71  71 SE7       30.04S
LANCASTER      PTCLDY    83  71  67 SE5       30.05R
$$

TXZ091>094-102>105-117-120-121-131>134-250300-
NORTH CENTRAL TEXAS

CITY           SKY/WX    TMP DP  RH WIND       PRES   REMARKS
SHRMAN/DENISON NOT AVBL
GAINESVILLE      N/A     81  70  69 S7        30.05R
BOWIE          CLEAR     83  70  64 SE7       30.03R
BRIDGEPORT     CLEAR     83  70  64 SE6       30.04R
DECATUR        CLEAR     83  67  59 SE7       30.04R
DENTON         CLEAR     84  69  60 S13       30.02R
MCKINNEY       CLEAR     83  72  69 SE7       30.03R
GREENVILLE     CLEAR     81  70  69 SE7       30.06R
ROCKWALL       CLEAR     83  72  70 S8        30.04R HAZE
TERRELL        PTCLDY    83  73  72 SE6       30.06R
WAXAHACHIE     MOCLDY    82  71  71 SE5       30.06R
CLEBURNE       CLOUDY    82  73  74 SE9       30.06R
GRANBURY       CLEAR     87  69  54 SE9       30.04R HX  91
$$

TXZ083>090-098>101-113>116-127>130-139>142-154-155-250300-
WESTERN NORTH TEXAS

CITY           SKY/WX    TMP DP  RH WIND       PRES   REMARKS
WICHITA FALLS  CLEAR     85  67  54 S10       29.99R
WF-KICKAPOO    CLEAR     87  67  51 S9        30.01R
VERNON         CLOUDY    74  63  67 N8        30.04R
ABILENE        CLEAR     81  66  60 S9        30.04R
ABILENE-DYESS  CLEAR     80  67  62 SE10      30.02R
CISCO          CLEAR     84  66  54 S10       30.05R
GRAHAM         CLEAR     85  69  58 SE7       30.00R
MINERAL WELLS  CLEAR     81  68  64 SE10      30.01R
STEPHENVILLE   CLEAR     82  68  61 SE7       30.08R
COMANCHE       CLEAR     82  68  63 SE8       30.05R
BROWNWOOD      PTCLDY    82  66  57 SE12      30.04R
COLEMAN        CLEAR     83  62  49 SE8       30.04R
$$

TXZ143>147-156>162-174-175-250300-
CENTRAL TEXAS

CITY           SKY/WX    TMP DP  RH WIND       PRES   REMARKS
WACO           CLEAR     84  71  65 SE8       30.04R
WACO-MCGREGOR  CLEAR     84  72  67 SE6       30.05R
HILLSBORO      CLOUDY    82  70  66 SE8       30.05R
CORSICANA      MOCLDY    84  72  67 SE3       30.07R
MEXIA          CLEAR     82  74  77 CALM      30.06R
HEARNE         CLEAR     83  73  71 CALM      30.06R HX  90
CAMERON        CLEAR     83  74  73 SE5       30.05R HX  90
TEMPLE         CLEAR     82  70  66 SE6       30.06R
KILLEEN        CLEAR     80  70  72 SE7       30.05R
KILLEEN-SKYLRK CLEAR     84  70  62 SE6       30.06R
FORT HOOD      CLEAR     82  69  66 SE5       30.03R
HAMILTON       CLEAR     81  69  65 S8        30.07R
LAMPASAS       CLEAR     81  70  71 SE5       30.06R
$$

TXZ095>097-106>112-122>126-135>138-148>153-164>167-250300-
EAST TEXAS

CITY           SKY/WX    TMP DP  RH WIND       PRES   REMARKS
PARIS          CLEAR     81  70  69 SE7       30.06R
SULPHUR SPRNGS CLEAR     85  71  63 S6        30.08R
MOUNT PLEASANT CLEAR     82  74  78 SE5       30.08R
GILMER         CLOUDY    82  77  84 CALM      30.07S
TYLER          CLEAR     84  75  74 SE6       30.07R HX  92
LONGVIEW       CLEAR     79  77  94 SE6       30.06R
MARSHALL       CLEAR     77  74  90 CALM      30.10R
ATHENS         PTCLDY    79  73  83 CALM      30.05R
PALESTINE      CLOUDY    82  78  88 CALM      30.08R HX  91
JACKSONVILLE   CLEAR     83  75  77 CALM      30.10S HX  90
HENDERSON      CLEAR     80  76  87 CALM      30.09R
CENTER         CLOUDY    81  80  95 CALM      30.09R HX  91
NACOGDOCHES    CLEAR    N/A N/A N/A CALM      30.06R
LUFKIN         PTCLDY    82  76  81 E3        30.07R
$$

SUPPLEMENTAL OBSERVATIONS (CENTRAL)

CITY           SKY/WX    TMP DP  RH WIND       PRES   REMARKS
$$

SUPPLEMENTAL OBSERVATIONS (WEST)

CITY           SKY/WX    TMP DP  RH WIND       PRES   REMARKS
$$

SUPPLEMENTAL OBSERVATIONS (EAST)

CITY           SKY/WX    TMP DP  RH WIND       PRES   REMARKS
$$

SUPPLEMENTAL OBSERVATIONS ARE A COLLECTION OF AUTOMATED INSTRUMENTS
THAT ARE MAINTAINED BY A VARIETY OF FEDERAL AND STATE AGENCIES.
CERTAIN ELEMENTS...SUCH AS HUMIDITY VALUES AND SUSTAINED WIND
SPEEDS...MAY BE APPROXIMATED.




USA.gov is the U.S. government's official web portal to all federal, state and local government web resources and services.